When you browse on this site, cookies collect data to enhance your experience and personalize the content and advertising you see.
Visit our Privacy Policy to learn more. By continuing to use the site, you agree to this use of cookies and data.
  • în România
  • Lista ţărilor
  • Pe 7 zile
  • Temperatura apei
  • Meteo pe hartă
  • Widget-uri
  • user-avatar
    Intrare

    Meteo pe oră la Maun

    Astăzi, 22 Septembrie, Duminică

    Timp Temperatura Precipitaţii Vânt Presiune Umiditate
    00:00 +19°C° 0 mm 0 m/s 680 mmHg 14%
    01:00 +18°C° 0 mm 0 m/s 679 mmHg 14%
    02:00 +20°C° 0 mm 1 m/s 679 mmHg 14%
    03:00 +19°C° 0 mm 1 m/s 679 mmHg 14%
    04:00 +19°C° 0 mm 1 m/s 679 mmHg 14%
    05:00 +19°C° 0 mm 1 m/s 679 mmHg 14%
    06:00 +21°C° 0 mm 1 m/s 680 mmHg 13%
    07:00 +21°C° 0 mm 2 m/s 680 mmHg 12%
    08:00 +24°C° 0 mm 3 m/s 681 mmHg 11%
    09:00 +27°C° 0 mm 2 m/s 682 mmHg 10%
    10:00 +31°C° 0 mm 2 m/s 682 mmHg 8%
    11:00 +35°C° 0 mm 2 m/s 683 mmHg 7%
    12:00 +37°C° 0 mm 2 m/s 682 mmHg 6%
    13:00 +38°C° 0 mm 2 m/s 682 mmHg 5%
    14:00 +40°C° 0 mm 1 m/s 681 mmHg 4%
    15:00 +39°C° 0 mm 2 m/s 681 mmHg 4%
    16:00 +38°C° 0 mm 2 m/s 680 mmHg 4%
    17:00 +37°C° 0 mm 3 m/s 680 mmHg 4%
    18:00 +34°C° 0 mm 2 m/s 680 mmHg 6%
    19:00 +30°C° 0 mm 1 m/s 680 mmHg 7%
    20:00 +26°C° 0 mm 1 m/s 680 mmHg 8%
    21:00 +25°C° 0 mm 1 m/s 680 mmHg 9%
    22:00 +24°C° 0 mm 1 m/s 680 mmHg 10%
    23:00 +23°C° 0 mm 1 m/s 680 mmHg 10%

    Mâine, 23 Septembrie, Luni

    Timp Temperatura Precipitaţii Vânt Presiune Umiditate
    00:00 +23°C° 0 mm 1 m/s 680 mmHg 11%
    01:00 +21°C° 0 mm 2 m/s 680 mmHg 11%
    02:00 +21°C° 0 mm 2 m/s 679 mmHg 12%
    03:00 +20°C° 0 mm 3 m/s 680 mmHg 15%
    04:00 +20°C° 0 mm 4 m/s 680 mmHg 19%
    05:00 +19°C° 0 mm 5 m/s 681 mmHg 23%
    06:00 +20°C° 0 mm 5 m/s 681 mmHg 21%
    07:00 +21°C° 0 mm 5 m/s 682 mmHg 18%
    08:00 +22°C° 0 mm 5 m/s 683 mmHg 16%
    09:00 +26°C° 0 mm 5 m/s 683 mmHg 14%
    10:00 +30°C° 0 mm 5 m/s 684 mmHg 11%
    11:00 +34°C° 0 mm 5 m/s 684 mmHg 9%
    12:00 +36°C° 0 mm 4 m/s 684 mmHg 8%
    13:00 +37°C° 0 mm 4 m/s 683 mmHg 6%
    14:00 +39°C° 0 mm 3 m/s 683 mmHg 5%
    15:00 +39°C° 0 mm 3 m/s 682 mmHg 5%
    16:00 +38°C° 0 mm 3 m/s 682 mmHg 5%
    17:00 +38°C° 0 mm 3 m/s 681 mmHg 6%
    18:00 +35°C° 0 mm 3 m/s 681 mmHg 7%
    19:00 +31°C° 0 mm 3 m/s 681 mmHg 9%
    20:00 +27°C° 0 mm 2 m/s 681 mmHg 10%
    21:00 +27°C° 0 mm 3 m/s 681 mmHg 11%
    22:00 +26°C° 0 mm 3 m/s 682 mmHg 12%
    23:00 +25°C° 0 mm 3 m/s 682 mmHg 12%

    Poimâine, 24 Septembrie, Marţi

    Timp Temperatura Precipitaţii Vânt Presiune Umiditate
    00:00 +24°C° 0 mm 3 m/s 682 mmHg 21%
    01:00 +22°C° 0 mm 3 m/s 682 mmHg 29%
    02:00 +21°C° 0 mm 3 m/s 682 mmHg 37%
    03:00 +21°C° 0 mm 3 m/s 682 mmHg 48%
    04:00 +20°C° 0 mm 3 m/s 682 mmHg 58%
    05:00 +20°C° 0 mm 4 m/s 682 mmHg 68%
    06:00 +21°C° 0 mm 4 m/s 683 mmHg 64%
    07:00 +22°C° 0 mm 4 m/s 683 mmHg 61%
    08:00 +22°C° 0 mm 5 m/s 684 mmHg 58%
    09:00 +27°C° 0 mm 5 m/s 684 mmHg 49%
    10:00 +30°C° 0 mm 4 m/s 684 mmHg 40%
    11:00 +34°C° 0 mm 4 m/s 685 mmHg 30%
    12:00 +36°C° 0 mm 4 m/s 684 mmHg 24%
    13:00 +37°C° 0 mm 3 m/s 683 mmHg 18%
    14:00 +39°C° 0 mm 3 m/s 683 mmHg 11%
    15:00 +39°C° 0 mm 3 m/s 682 mmHg 11%
    16:00 +38°C° 0 mm 3 m/s 682 mmHg 11%
    17:00 +38°C° 0 mm 3 m/s 681 mmHg 10%
    18:00 +35°C° 0 mm 3 m/s 681 mmHg 13%
    19:00 +31°C° 0 mm 3 m/s 681 mmHg 15%
    20:00 +28°C° 0 mm 3 m/s 681 mmHg 17%
    21:00 +27°C° 0 mm 3 m/s 682 mmHg 20%
    22:00 +27°C° 0 mm 3 m/s 682 mmHg 22%
    23:00 +26°C° 0 mm 4 m/s 682 mmHg 25%

    25 Septembrie, Miercuri

    Timp Temperatura Precipitaţii Vânt Presiune Umiditate
    00:00 +25°C° 0 mm 4 m/s 682 mmHg 34%
    01:00 +23°C° 0 mm 4 m/s 682 mmHg 44%
    02:00 +22°C° 0 mm 4 m/s 682 mmHg 53%
    03:00 +21°C° 0 mm 4 m/s 682 mmHg 57%
    04:00 +20°C° 0 mm 4 m/s 682 mmHg 60%
    05:00 +19°C° 0 mm 4 m/s 682 mmHg 64%
    06:00 +20°C° 0 mm 4 m/s 682 mmHg 61%
    07:00 +21°C° 0 mm 5 m/s 683 mmHg 57%
    08:00 +22°C° 0 mm 6 m/s 684 mmHg 54%
    09:00 +26°C° 0 mm 5 m/s 684 mmHg 46%
    10:00 +29°C° 0 mm 5 m/s 685 mmHg 38%
    11:00 +33°C° 0 mm 5 m/s 685 mmHg 31%
    12:00 +35°C° 0 mm 5 m/s 685 mmHg 26%
    13:00 +36°C° 0 mm 5 m/s 684 mmHg 22%
    14:00 +39°C° 0 mm 5 m/s 684 mmHg 18%
    15:00 +37°C° 0 mm 5 m/s 684 mmHg 18%
    16:00 +36°C° 0 mm 6 m/s 683 mmHg 19%
    17:00 +35°C° 0 mm 6 m/s 683 mmHg 19%
    18:00 +33°C° 0 mm 7 m/s 683 mmHg 22%
    19:00 +30°C° 0 mm 7 m/s 684 mmHg 25%
    20:00 +28°C° 0 mm 8 m/s 684 mmHg 28%
    21:00 +26°C° 0 mm 8 m/s 684 mmHg 32%
    22:00 +23°C° 0 mm 8 m/s 685 mmHg 36%
    23:00 +22°C° 0 mm 8 m/s 686 mmHg 40%

    26 Septembrie, Joi

    Timp Temperatura Precipitaţii Vânt Presiune Umiditate
    00:00 +20°C° 0 mm 8 m/s 685 mmHg 45%
    01:00 +18°C° 0 mm 7 m/s 685 mmHg 49%
    02:00 +17°C° 0 mm 7 m/s 685 mmHg 53%
    03:00 +16°C° 0 mm 7 m/s 685 mmHg 54%
    04:00 +15°C° 0 mm 6 m/s 686 mmHg 55%
    05:00 +15°C° 0 mm 6 m/s 686 mmHg 56%
    06:00 +15°C° 0 mm 6 m/s 686 mmHg 54%
    07:00 +16°C° 0 mm 7 m/s 687 mmHg 53%
    08:00 +16°C° 0 mm 7 m/s 687 mmHg 52%
    09:00 +20°C° 0 mm 6 m/s 688 mmHg 44%
    10:00 +22°C° 0 mm 6 m/s 688 mmHg 36%
    11:00 +24°C° 0 mm 6 m/s 688 mmHg 28%
    12:00 +27°C° 0 mm 6 m/s 688 mmHg 24%
    13:00 +28°C° 0 mm 5 m/s 687 mmHg 20%
    14:00 +30°C° 0 mm 5 m/s 686 mmHg 16%
    15:00 +29°C° 0 mm 5 m/s 686 mmHg 15%
    16:00 +29°C° 0 mm 5 m/s 685 mmHg 14%
    17:00 +28°C° 0 mm 5 m/s 685 mmHg 13%
    18:00 +26°C° 0 mm 4 m/s 685 mmHg 13%
    19:00 +22°C° 0 mm 4 m/s 685 mmHg 13%
    20:00 +19°C° 0 mm 3 m/s 685 mmHg 13%
    21:00 +18°C° 0 mm 4 m/s 685 mmHg 16%
    22:00 +18°C° 0 mm 4 m/s 685 mmHg 19%
    23:00 +16°C° 0 mm 5 m/s 686 mmHg 22%

    27 Septembrie, Vineri

    Timp Temperatura Precipitaţii Vânt Presiune Umiditate
    00:00 +15°C° 0 mm 5 m/s 685 mmHg 26%
    01:00 +15°C° 0 mm 5 m/s 685 mmHg 29%
    02:00 +14°C° 0 mm 5 m/s 685 mmHg 33%
    03:00 +13°C° 0 mm 4 m/s 685 mmHg 36%
    04:00 +11°C° 0 mm 3 m/s 684 mmHg 40%
    05:00 +10°C° 0 mm 3 m/s 684 mmHg 44%
    06:00 +12°C° 0 mm 3 m/s 685 mmHg 41%
    07:00 +13°C° 0 mm 4 m/s 686 mmHg 38%
    08:00 +14°C° 0 mm 4 m/s 686 mmHg 35%
    09:00 +18°C° 0 mm 4 m/s 687 mmHg 28%
    10:00 +22°C° 0 mm 4 m/s 687 mmHg 20%
    11:00 +26°C° 0 mm 4 m/s 687 mmHg 13%
    12:00 +27°C° 0 mm 4 m/s 686 mmHg 11%
    13:00 +29°C° 0 mm 4 m/s 686 mmHg 9%
    14:00 +31°C° 0 mm 3 m/s 685 mmHg 6%
    15:00 +30°C° 0 mm 4 m/s 684 mmHg 6%
    16:00 +30°C° 0 mm 4 m/s 684 mmHg 6%
    17:00 +30°C° 0 mm 4 m/s 683 mmHg 6%
    18:00 +27°C° 0 mm 4 m/s 683 mmHg 8%
    19:00 +24°C° 0 mm 3 m/s 682 mmHg 11%
    20:00 +20°C° 0 mm 3 m/s 682 mmHg 13%
    21:00 +19°C° 0 mm 3 m/s 682 mmHg 14%
    22:00 +18°C° 0 mm 2 m/s 682 mmHg 15%
    23:00 +17°C° 0 mm 2 m/s 682 mmHg 16%
    Arată mai mult